Date String (YYYY-MM-DD hh:mm:ss) UTC,Instrument flags,Ambient pressure (hPa),Sample flow (lpm),Bypass flow (lpm),Sample temperature (°C),Ambient temperature (°C),ASC tube jacket temperature (°C),LED temperature (°C),Box temperature (°C),Sample RH (%),Span deviation,Mass concentration (μg/m³),Mass concentration (μg/m³),Mass concentration (μg/m³)
DateTimeUTC,F1_M11,P_M11,Q1_M11,Q2_M11,T1_M11,T2_M11,T3_M11,T4_M11,T5_M11,U1_M11,ZSPAN_M11,X0_M11,X2_M11,X1_M11
2022-12-24 15:00:00,,0829.1,5.03,0.00,22.1,22.7,00.0,30.7,24.1,12.7,0000.0,0000.12,0000.09,0000.07
2022-12-24 15:01:00,,0829.1,5.01,0.00,22.1,22.2,00.0,30.7,24.0,12.6,0000.0,0000.13,0000.10,0000.07
2022-12-24 15:02:00,,0829.2,4.96,0.00,22.1,21.6,00.0,30.8,23.9,12.7,0000.0,0000.13,0000.10,0000.07
2022-12-24 15:03:00,,0829.2,5.03,0.00,22.1,21.1,00.0,30.8,23.7,12.6,0000.0,0000.12,0000.09,0000.07
2022-12-24 15:04:00,,0829.2,5.01,0.00,22.0,20.7,00.0,30.8,23.7,12.5,0000.0,0000.11,0000.08,0000.07
2022-12-24 15:05:00,,0829.2,5.01,0.00,22.0,20.5,00.0,30.8,23.6,12.2,0000.0,0000.13,0000.09,0000.07
2022-12-24 15:06:00,,0829.3,4.97,0.00,21.9,20.4,00.0,30.8,23.5,12.2,0000.0,0000.28,0000.10,0000.07
2022-12-24 15:07:00,,0829.2,4.99,0.00,21.9,20.2,00.0,30.8,23.4,12.5,0000.0,0000.28,0000.10,0000.07
2022-12-24 15:08:00,,0829.2,5.02,0.00,21.9,20.1,00.0,30.8,23.4,12.6,0000.0,0000.32,0000.11,0000.08
2022-12-24 15:09:00,,0829.2,5.02,0.00,21.8,20.1,00.0,30.8,23.4,12.8,0000.0,0000.35,0000.12,0000.08
2022-12-24 15:10:00,,0829.2,5.00,0.00,21.8,20.1,00.0,30.8,23.3,13.0,0000.0,0000.36,0000.12,0000.08
2022-12-24 15:11:00,,0829.2,4.98,0.00,21.8,19.9,00.0,30.7,23.2,12.9,0000.0,0000.37,0000.13,0000.08
2022-12-24 15:12:00,,0829.3,4.97,0.00,21.7,19.9,00.0,30.7,23.2,12.6,0000.0,0000.35,0000.12,0000.08
2022-12-24 15:13:00,,0829.3,5.02,0.00,21.7,20.0,00.0,30.7,23.2,12.5,0000.0,0000.35,0000.12,0000.08
2022-12-24 15:14:00,,0829.4,5.04,0.00,21.7,20.1,00.0,30.7,23.2,12.5,0000.0,0000.35,0000.12,0000.08
2022-12-24 15:15:00,,0829.3,5.01,0.00,21.7,20.1,00.0,30.6,23.2,12.6,0000.0,0000.34,0000.12,0000.07
2022-12-24 15:16:00,,0829.3,4.98,0.00,21.6,20.2,00.0,30.6,23.2,12.6,0000.0,0000.34,0000.12,0000.08
2022-12-24 15:17:00,,0829.4,5.00,0.00,21.7,21.3,00.0,30.6,23.4,12.6,0000.0,0000.23,0000.12,0000.08
2022-12-24 15:18:00,,0829.5,5.04,0.00,21.9,22.5,00.0,30.6,23.8,12.6,0000.0,0000.22,0000.12,0000.08
2022-12-24 15:19:00,,0829.5,4.95,0.00,22.0,22.6,00.0,30.6,24.0,12.6,0000.0,0000.19,0000.11,0000.08
2022-12-24 15:20:00,,0829.5,5.04,0.00,22.0,22.2,00.0,30.7,23.9,12.6,0000.0,0000.16,0000.10,0000.08
2022-12-24 15:21:00,,0829.5,4.97,0.00,22.0,21.8,00.0,30.7,23.9,12.6,0000.0,0000.15,0000.10,0000.08
2022-12-24 15:22:00,,0829.5,4.99,0.00,22.0,21.5,00.0,30.8,23.8,12.7,0000.0,0000.15,0000.09,0000.08
2022-12-24 15:23:00,,0829.5,5.02,0.00,22.1,21.3,00.0,30.8,23.8,12.9,0000.0,0000.14,0000.09,0000.08
2022-12-24 15:24:00,,0829.5,5.01,0.00,22.1,21.2,00.0,30.8,23.8,12.7,0000.0,0000.33,0000.10,0000.08
2022-12-24 15:25:00,,0829.5,4.96,0.00,22.1,21.2,00.0,30.8,23.8,12.5,0000.0,0000.54,0000.10,0000.08
2022-12-24 15:26:00,,0829.5,5.00,0.00,22.1,21.2,00.0,30.8,23.9,12.5,0000.0,0000.56,0000.10,0000.08
2022-12-24 15:27:00,,0829.5,5.04,0.00,22.1,21.2,00.0,30.8,23.9,12.4,0000.0,0000.54,0000.10,0000.08
2022-12-24 15:28:00,,0829.5,5.02,0.00,22.1,21.3,00.0,30.8,23.9,12.3,0000.0,0000.52,0000.09,0000.08
2022-12-24 15:29:00,,0829.5,4.97,0.00,22.2,21.3,00.0,30.8,23.9,12.3,0000.0,0000.51,0000.08,0000.07
2022-12-24 15:30:00,,0829.5,4.98,0.00,22.2,21.3,00.0,30.9,23.9,12.3,0000.0,0000.73,0000.09,0000.07
2022-12-24 15:31:00,,0829.6,5.03,0.00,22.2,21.3,00.0,30.9,23.9,12.2,0000.0,0000.74,0000.09,0000.07
2022-12-24 15:32:00,,0829.5,5.02,0.00,22.2,21.3,00.0,30.9,23.9,12.2,0000.0,0000.76,0000.10,0000.07
2022-12-24 15:33:00,,0829.6,4.98,0.00,22.2,21.3,00.0,30.9,24.0,12.2,0000.0,0000.76,0000.10,0000.07
2022-12-24 15:34:00,,0829.6,4.97,0.00,22.2,21.3,00.0,30.9,24.0,12.2,0000.0,0000.76,0000.10,0000.06
2022-12-24 15:35:00,,0829.5,5.03,0.00,22.3,21.3,00.0,30.9,24.0,12.5,0000.0,0000.65,0000.10,0000.06
2022-12-24 15:36:00,,0829.8,5.03,0.00,22.3,21.3,00.0,30.9,24.0,12.7,0000.0,0000.41,0000.11,0000.07
2022-12-24 15:37:00,,0829.7,5.00,0.00,22.3,21.4,00.0,30.9,24.1,12.6,0000.0,0000.43,0000.13,0000.08
2022-12-24 15:38:00,,0829.7,4.96,0.00,22.3,21.4,00.0,30.9,24.1,12.4,0000.0,0000.47,0000.13,0000.09
2022-12-24 15:39:00,,0829.8,5.02,0.00,22.3,21.4,00.0,31.0,24.1,12.3,0000.0,0000.54,0000.14,0000.09
2022-12-24 15:40:00,,0829.8,5.02,0.00,22.3,21.4,00.0,31.0,24.1,12.3,0000.0,0000.54,0000.14,0000.09
2022-12-24 15:41:00,,0829.8,5.00,0.00,22.3,21.4,00.0,31.0,24.1,12.1,0000.0,0000.40,0000.16,0000.09
2022-12-24 15:42:00,,0829.8,4.97,0.00,22.3,21.4,00.0,31.0,24.1,12.0,0000.0,0000.38,0000.16,0000.09
2022-12-24 15:43:00,,0829.7,4.99,0.00,22.3,21.3,00.0,31.0,24.1,12.1,0000.0,0000.36,0000.15,0000.09
2022-12-24 15:44:00,,0829.7,5.02,0.00,22.3,21.3,00.0,31.1,24.1,12.0,0000.0,0000.38,0000.16,0000.09
2022-12-24 15:45:00,,0829.7,5.01,0.00,22.4,21.3,00.0,31.1,24.1,12.0,0000.0,0000.38,0000.16,0000.09
2022-12-24 15:46:00,,0829.7,5.01,0.00,22.4,21.3,00.0,31.1,24.1,12.0,0000.0,0000.38,0000.16,0000.09
2022-12-24 15:47:00,,0829.7,4.96,0.00,22.4,21.3,00.0,31.1,24.1,12.0,0000.0,0000.39,0000.16,0000.08
2022-12-24 15:48:00,,0829.7,5.00,0.00,22.4,21.3,00.0,31.1,24.1,12.0,0000.0,0000.38,0000.15,0000.07
2022-12-24 15:49:00,,0829.6,5.02,0.00,22.4,21.3,00.0,31.1,24.1,12.0,0000.0,0000.35,0000.15,0000.07
2022-12-24 15:50:00,,0829.7,5.02,0.00,22.4,21.3,00.0,31.1,24.1,12.0,0000.0,0000.36,0000.16,0000.08
2022-12-24 15:51:00,,0829.7,4.99,0.00,22.4,21.3,00.0,31.1,24.1,12.0,0000.0,0000.44,0000.18,0000.08
2022-12-24 15:52:00,,0829.7,4.97,0.00,22.3,21.2,00.0,31.1,24.1,11.9,0000.0,0000.46,0000.18,0000.08
2022-12-24 15:53:00,,0829.8,5.01,0.00,22.3,21.1,00.0,31.1,24.1,11.9,0000.0,0000.45,0000.18,0000.08
2022-12-24 15:54:00,,0829.8,5.03,0.00,22.3,21.1,00.0,31.1,24.1,11.7,0000.0,0000.89,0000.45,0000.31
2022-12-24 15:55:00,,0829.8,5.02,0.00,22.3,21.1,00.0,31.1,24.1,11.4,0000.0,0001.59,0000.94,0000.77
2022-12-24 15:56:00,,0829.9,4.98,0.00,22.3,21.1,00.0,31.1,24.1,11.3,0000.0,0002.48,0001.53,0001.25
2022-12-24 15:57:00,,0829.8,4.97,0.00,22.3,21.2,00.0,31.1,24.1,11.5,0000.0,0002.97,0001.89,0001.58
2022-12-24 15:58:00,,0829.8,5.02,0.00,22.3,21.2,00.0,31.1,24.1,11.5,0000.0,0003.25,0002.12,0001.81
2022-12-24 15:59:00,,0829.8,5.02,0.00,22.3,21.1,00.0,31.1,24.1,11.6,0000.0,0003.93,0002.34,0002.01
